Theta_e
333 331 337 342 343 342 342 342 342 345 344 344 344 343 344 344 343 343 343 343 343 343 342 343 342 343 342 342 341 342 342 341 341 341 340 339 339 339 338 338 338 337 337 337 338 338 338 338 338 337 337 337 335 335 335 335 335 333 333 331 332 332 334 334 333 332 332 332 333 333 330 331 332 332 332 333 335 332 335 334 332 329 328 327 331
327 330 336 340 342 341 342 343 342 344 344 344 344 343 344 343 343 343 343 343 342 343 343 342 342 342 341 341 341 341 340 341 340 340 339 339 339 339 338 338 341 341 341 341 342 342 341 341 341 341 340 340 339 339 339 338 334 333 334 333 332 333 333 334 333 332 333 333 334 333 331 331 331 331 331 333 334 333 336 333 332 329 323 333 330
330 335 339 339 342 342 342 342 341 342 342 342 344 343 343 342 343 343 343 342 342 342 342 342 343 342 341 341 341 341 341 341 341 340 341 341 340 341 341 341 341 341 341 341 340 341 341 341 340 341 340 340 340 339 339 338 338 338 337 337 336 337 334 334 334 333 333 334 334 334 331 332 332 333 333 332 333 335 335 333 333 333 323 331 330
334 337 339 340 342 340 340 341 342 342 343 343 343 343 342 343 343 342 342 342 342 342 342 342 342 342 342 341 341 341 341 341 341 341 341 341 340 340 341 340 341 340 340 340 340 340 340 340 341 340 340 340 340 339 339 337 337 337 337 337 336 336 336 336 335 334 334 334 334 332 325 317 321 330 335 333 332 333 333 334 333 332 332 333 333
330 338 339 338 335 340 341 340 342 343 343 343 343 342 342 342 342 342 341 341 341 341 341 341 342 342 342 341 342 341 341 340 341 340 340 340 341 340 341 341 340 341 340 340 340 339 339 339 339 339 339 339 338 337 336 335 337 337 337 337 336 336 335 335 336 336 334 334 334 330 318 319 318 328 335 334 332 329 335 332 332 332 333 333 332
332 338 338 338 338 339 341 339 340 342 342 343 342 343 342 342 341 340 341 341 341 341 341 341 341 341 340 340 340 340 340 340 339 339 339 339 340 340 340 340 340 339 339 339 339 339 338 338 337 338 338 337 336 335 335 335 336 336 337 336 336 336 335 336 335 335 335 334 332 323 320 319 319 323 335 336 334 333 334 330 328 332 333 332 330
337 337 338 339 338 339 340 338 340 342 341 343 342 342 342 341 341 342 341 341 341 340 340 340 340 339 339 338 338 338 339 339 339 339 339 339 339 338 338 338 338 338 337 337 336 338 337 337 336 336 336 338 338 338 336 336 336 337 336 336 335 335 335 335 334 335 332 330 323 321 320 320 320 320 333 336 336 332 332 334 327 329 330 330 329
337 337 338 338 336 336 339 339 340 342 342 342 341 341 341 342 341 341 340 340 340 340 340 340 340 339 338 338 338 338 338 339 339 338 338 338 338 338 337 336 336 337 337 337 336 337 338 337 336 336 336 336 336 337 336 335 335 335 335 335 335 336 335 334 334 332 331 325 322 321 320 321 322 321 331 336 336 335 334 334 332 328 330 331 330
333 335 336 338 338 338 339 339 340 341 341 341 342 342 342 341 341 340 339 339 339 339 339 339 339 338 339 338 338 337 337 338 338 339 338 338 339 338 338 337 337 337 338 338 338 337 336 334 332 332 333 334 333 333 332 331 332 332 331 331 329 330 332 332 330 329 326 322 321 320 319 321 323 323 330 336 336 336 335 334 335 334 332 331 330
331 332 333 333 336 338 338 339 340 340 341 341 340 341 341 340 340 340 339 339 340 340 339 339 338 339 337 336 335 334 334 335 336 337 337 337 338 338 337 337 337 335 334 333 334 334 332 332 330 330 330 330 330 328 328 327 327 328 328 327 327 327 327 328 327 325 322 320 320 319 321 329 324 323 327 336 337 336 335 334 335 337 334 334 332
327 328 329 330 331 334 337 339 339 341 342 341 340 340 340 340 339 339 339 339 339 339 338 338 338 338 336 334 333 331 330 332 333 334 335 336 337 336 336 335 333 332 331 331 331 330 329 328 328 327 327 327 327 326 324 323 323 323 324 324 324 325 325 324 323 318 319 319 319 320 323 328 322 320 332 336 336 335 333 334 334 334 334 333 334
323 324 325 326 330 331 332 334 337 339 340 341 340 340 339 338 337 337 337 337 339 339 338 338 337 337 334 333 330 328 329 330 331 332 333 334 334 333 333 332 331 331 329 328 327 326 326 325 324 324 323 323 323 323 322 320 319 319 320 321 321 321 320 319 316 316 316 317 318 322 320 320 321 324 336 335 335 337 335 334 336 334 336 334 334
320 320 321 322 323 326 328 330 332 334 335 336 336 336 336 336 336 335 337 338 338 337 337 336 335 333 332 330 327 327 326 327 329 330 330 331 331 331 330 330 329 328 327 326 325 324 323 322 321 321 320 320 320 320 319 318 318 317 317 317 317 318 317 313 310 311 313 315 319 320 320 320 321 333 335 335 336 336 336 335 334 334 335 335 333
315 315 315 316 319 323 324 325 328 329 330 331 333 333 333 333 333 334 335 336 335 335 334 334 332 330 329 326 325 324 324 324 326 326 326 327 327 326 326 326 326 325 324 323 323 322 321 320 320 319 319 319 319 319 318 318 317 316 316 314 314 314 314 306 308 306 309 312 318 321 320 321 322 334 332 335 335 335 334 334 334 333 333 333 333
312 313 313 312 312 315 320 321 322 324 326 327 329 329 330 330 331 331 331 332 332 331 331 330 329 327 325 324 323 322 322 322 322 322 322 322 323 323 323 323 323 323 322 321 320 319 319 318 318 318 317 317 317 317 317 317 316 315 314 313 312 310 311 299 300 301 304 309 314 318 318 319 330 332 332 332 333 333 334 334 333 333 333 332 333
311 310 311 310 310 310 311 315 317 318 321 322 324 325 326 327 327 327 327 328 328 327 327 326 325 324 322 321 321 320 320 320 319 319 319 319 320 320 320 321 320 320 319 319 318 317 317 316 316 315 315 315 315 314 315 315 314 313 312 310 309 308 307 302 296 297 300 303 308 310 312 316 328 329 329 330 331 331 331 331 330 331 332 332 332
308 309 308 308 309 308 308 309 311 312 314 317 320 321 323 323 323 323 323 323 323 323 323 322 321 320 319 318 317 317 317 317 317 317 316 316 316 316 316 317 317 317 316 316 316 316 315 315 314 314 313 313 312 312 312 312 312 311 310 309 307 305 305 301 292 293 296 302 304 304 305 312 321 327 328 329 329 331 330 329 328 328 327 328 329
305 306 305 306 306 306 307 306 306 305 305 308 313 317 318 319 319 320 319 319 319 319 318 318 317 316 315 315 315 315 314 314 314 314 315 314 314 313 314 315 315 315 314 314 315 314 314 313 313 312 312 311 311 311 311 311 310 309 308 307 305 303 301 299 290 292 294 299 298 302 300 314 321 322 323 325 327 328 329 328 326 325 325 325 326
303 303 303 303 303 304 304 304 305 304 303 303 304 308 314 315 316 316 316 315 315 315 314 313 313 313 312 311 311 311 311 311 311 312 312 312 313 312 312 312 313 313 313 312 313 313 313 312 311 311 310 310 309 309 308 308 308 307 306 305 303 300 299 294 289 289 293 291 296 296 296 315 318 320 321 322 323 325 327 326 325 324 323 323 324
301 301 301 301 302 302 303 303 303 302 302 302 302 303 307 310 312 312 312 312 312 311 310 309 309 308 308 308 308 305 305 305 308 305 309 309 310 308 310 310 310 311 311 311 311 311 311 311 310 310 309 307 306 305 305 305 306 305 304 303 301 298 289 288 288 288 290 291 295 292 303 315 316 317 318 319 321 322 324 323 323 322 321 322 322
300 299 300 300 301 301 301 301 301 300 301 301 301 301 304 304 304 308 309 309 309 308 307 306 304 305 303 303 303 299 299 299 300 299 304 304 306 307 307 308 308 308 308 309 308 308 309 309 308 308 307 305 302 301 301 302 302 303 301 300 298 289 289 288 288 291 290 290 295 291 307 313 315 316 317 317 319 320 321 322 321 320 319 319 320
297 297 298 299 299 299 299 299 299 300 299 300 300 300 300 301 297 299 302 303 305 304 302 300 303 297 302 298 296 298 295 298 299 302 299 301 302 305 305 305 306 305 305 305 306 306 306 307 306 306 304 303 299 290 292 297 299 301 299 298 290 289 289 289 288 289 291 288 294 295 307 311 314 316 317 317 318 318 318 319 320 319 319 318 318
296 296 297 298 299 299 299 298 298 298 299 298 299 299 296 296 296 296 298 300 301 299 297 298 296 296 296 295 297 294 293 295 299 301 301 300 299 302 303 302 303 303 302 302 302 303 302 303 303 302 301 299 290 288 289 289 289 296 295 290 288 288 288 288 288 288 288 290 290 299 306 309 312 314 316 317 318 318 317 317 318 319 319 318 317
296 296 296 298 299 298 297 298 298 297 297 298 298 296 296 295 295 295 295 295 295 297 295 296 295 295 295 295 294 295 293 292 299 299 297 292 292 297 299 298 299 299 300 295 297 299 299 298 299 299 295 293 288 287 288 288 288 288 287 288 287 288 287 288 287 287 287 290 290 301 305 307 310 311 314 316 316 316 316 316 317 318 319 318 317
297 297 297 297 297 297 296 295 296 296 295 296 297 297 295 295 294 294 294 294 294 294 294 295 295 295 295 294 294 294 293 292 291 291 290 290 290 290 290 290 290 289 297 288 289 290 290 288 288 291 288 289 288 287 288 288 288 288 287 287 287 287 287 288 287 287 287 287 290 300 303 305 308 310 312 314 314 315 315 316 317 317 317 317 316
300 295 295 296 295 296 296 295 295 294 294 294 295 298 296 295 295 295 293 293 294 293 293 293 294 294 294 295 294 292 292 291 291 291 290 290 289 289 289 289 289 289 294 288 288 288 287 287 287 288 287 287 287 287 288 290 287 287 287 287 287 287 287 287 287 287 287 287 289 299 301 303 305 308 310 312 313 314 314 315 315 316 316 316 316
297 295 295 296 296 295 295 295 294 294 293 294 293 294 294 295 296 296 293 292 292 292 292 292 293 294 294 296 292 291 290 290 290 290 290 290 289 288 288 288 288 288 290 288 288 288 287 287 287 287 287 287 287 287 287 287 286 286 286 287 287 287 287 287 287 287 287 287 291 296 299 301 303 306 308 311 313 313 314 315 315 316 316 316 316
296 295 295 294 296 294 294 294 295 294 293 293 293 293 292 294 296 296 294 297 293 292 291 292 293 292 294 295 294 291 290 290 290 289 289 289 289 289 288 288 288 288 290 289 288 287 287 286 287 286 287 287 286 287 287 287 286 286 286 286 287 287 287 287 287 287 287 286 288 293 297 300 302 305 306 309 310 312 312 314 315 315 316 315 314
295 296 295 294 294 298 295 295 294 294 293 293 292 292 292 292 292 292 293 297 292 291 292 292 291 292 292 293 295 290 290 290 290 289 288 289 288 288 288 288 288 287 289 287 288 287 286 286 286 286 286 286 286 286 288 286 286 286 286 286 286 286 286 287 287 287 287 287 286 290 296 298 300 302 304 307 308 309 310 310 311 312 313 313 312
295 295 294 294 295 294 294 295 296 295 294 293 293 292 292 291 292 292 293 294 291 292 292 290 290 290 290 291 293 292 289 289 289 288 287 287 287 287 288 287 287 287 287 287 287 287 286 286 285 286 286 285 286 286 288 285 286 286 285 286 286 286 286 286 287 287 287 287 286 288 294 296 298 300 302 303 305 307 308 309 310 311 311 312 312
296 294 294 294 298 293 294 294 295 298 294 294 294 292 293 291 294 291 291 290 291 293 291 290 290 290 291 290 290 293 290 289 288 288 288 286 286 286 286 287 285 286 287 287 287 288 286 285 285 285 285 285 286 285 285 285 285 285 286 285 286 286 286 287 287 287 287 287 286 286 289 294 296 298 300 301 304 306 306 307 308 308 309 310 311
295 293 293 296 294 294 294 295 294 296 295 293 296 293 292 293 292 290 290 291 294 290 289 290 293 289 290 289 290 289 293 288 288 287 289 286 286 285 285 286 285 285 287 286 287 287 286 286 286 286 286 285 285 285 286 285 284 285 285 285 286 286 286 286 286 287 287 287 286 286 286 289 293 295 297 299 301 303 304 306 307 308 308 309 310
294 294 293 294 295 294 297 295 294 294 292 292 292 292 291 291 291 290 293 293 290 290 289 290 289 289 290 289 289 290 292 289 288 288 289 286 285 285 286 287 286 286 287 287 287 286 285 285 285 286 285 286 285 285 286 285 284 285 285 285 285 286 286 286 286 286 287 286 286 286 285 287 287 292 294 296 298 300 302 304 305 306 308 308 309
295 292 293 292 296 295 296 295 298 293 297 294 295 290 291 293 295 289 294 291 289 289 293 288 290 291 289 288 288 290 290 288 288 287 286 286 286 286 285 286 285 286 287 287 286 285 285 285 286 285 287 286 284 284 285 285 285 285 285 285 285 286 286 286 286 287 287 286 286 285 285 285 285 285 287 294 296 297 300 302 303 305 306 306 306
293 292 293 293 293 292 298 291 297 290 292 291 291 293 294 292 289 288 289 290 289 287 287 287 287 287 289 286 288 290 291 287 288 287 287 286 286 285 286 285 286 287 286 286 286 286 285 285 286 285 284 284 284 286 285 284 284 285 285 286 285 286 286 286 286 287 287 286 286 285 285 285 284 285 288 285 292 294 297 300 301 303 303 304 304
291 291 291 293 290 290 294 289 290 290 290 294 292 290 290 289 290 298 289 289 288 288 287 287 287 287 287 286 286 289 290 287 287 287 286 286 285 286 286 286 286 286 286 286 287 286 285 285 286 284 284 284 285 285 285 284 285 285 285 285 285 287 286 286 286 286 287 287 286 285 285 285 285 285 292 286 286 289 296 298 299 301 301 301 301
290 290 290 290 290 289 292 291 289 290 290 289 290 290 290 289 290 290 290 290 287 286 286 287 287 286 286 285 286 289 288 287 287 286 286 286 286 287 286 286 286 286 286 286 285 286 285 285 285 286 284 284 284 284 285 285 285 285 285 285 285 286 285 285 286 286 288 286 285 284 285 285 288 291 287 286 285 285 290 295 297 298 298 297 298
289 293 290 290 289 290 290 294 293 290 290 289 292 289 289 290 288 287 294 289 287 286 288 287 286 285 285 286 287 288 290 287 286 287 286 287 287 286 286 286 287 286 285 285 285 285 285 285 285 285 286 284 284 284 284 284 285 285 285 285 285 285 285 285 286 289 286 285 284 284 285 285 285 287 286 286 285 285 285 289 294 295 295 295 296
287 287 288 288 289 289 293 288 292 288 288 288 289 289 289 289 287 287 288 289 286 286 288 287 286 286 286 287 288 288 289 287 287 287 287 287 287 287 286 286 286 285 285 285 285 286 286 286 285 285 286 285 284 284 284 284 284 285 284 285 285 285 286 286 287 286 285 284 286 289 286 285 286 286 286 285 285 285 285 285 285 285 286 293 295
286 287 292 288 289 288 289 287 288 287 288 289 288 286 286 287 285 285 284 285 285 289 289 286 285 285 289 287 287 286 286 289 287 287 286 288 286 286 286 286 286 285 285 285 285 285 285 285 285 285 284 285 285 285 284 284 284 284 285 286 286 286 285 286 286 285 286 284 284 285 285 285 285 285 285 285 284 284 284 285 287 284 285 289 293
286 287 286 287 287 287 289 286 286 287 289 286 288 285 286 284 284 284 284 284 286 289 287 285 286 286 287 286 286 287 286 286 289 287 287 288 287 285 286 286 285 286 285 285 285 285 286 285 285 284 285 283 283 284 285 284 284 284 284 284 285 285 287 287 286 285 284 284 284 285 285 285 284 284 284 284 284 284 284 284 284 284 285 285 287
287 286 285 286 286 286 286 286 286 286 287 286 288 285 285 285 285 285 284 283 285 285 284 286 287 288 285 285 286 285 286 286 288 287 288 286 286 285 285 285 285 285 287 286 286 288 285 285 284 283 283 283 282 284 285 284 282 281 281 281 283 283 285 285 284 283 283 285 285 284 284 284 284 284 284 284 283 284 284 284 284 285 285 285 285
284 285 286 285 285 285 286 286 286 286 286 289 286 286 285 289 285 285 286 285 284 285 285 287 286 285 283 285 286 285 285 286 286 287 287 286 285 285 285 285 285 287 285 285 285 285 285 284 284 282 283 283 284 285 285 284 281 282 282 281 280 280 283 281 280 282 285 285 285 284 284 283 284 283 283 283 284 283 284 284 284 284 285 284 284
286 286 285 285 285 288 285 285 286 286 286 286 294 288 288 287 288 287 285 285 285 287 284 283 282 283 286 285 284 285 285 285 285 285 286 286 285 285 285 285 285 285 285 284 284 284 285 284 284 284 284 282 282 281 285 284 282 282 278 279 279 279 277 277 280 283 284 283 283 283 283 283 283 282 283 283 283 283 284 284 284 284 284 284 284
286 286 286 285 286 285 286 286 286 286 285 289 290 290 289 285 284 284 285 282 282 281 282 283 283 286 286 285 286 285 285 286 285 285 287 286 285 285 285 285 285 285 286 285 285 284 284 284 284 284 283 282 282 281 281 284 283 284 281 279 277 277 276 278 280 280 281 282 281 282 284 284 282 283 282 283 283 283 284 284 284 283 283 283 282
286 287 286 286 285 286 285 285 285 285 286 285 286 288 286 285 283 283 284 281 282 283 282 282 283 284 284 285 286 285 285 285 285 285 285 287 286 285 284 285 285 286 286 286 285 284 285 284 285 284 283 283 282 281 281 283 284 284 283 282 280 277 277 279 278 275 281 281 282 280 281 282 282 282 283 283 282 283 284 283 283 282 281 281 282
287 287 285 285 285 285 284 285 285 285 286 285 286 291 286 285 284 284 283 282 281 282 281 281 282 284 285 285 285 285 285 285 285 284 284 285 286 285 285 286 285 285 288 286 285 285 285 284 286 284 283 285 282 281 281 281 281 281 282 282 282 283 281 279 276 277 275 278 279 279 281 280 280 282 281 281 282 281 282 282 281 280 280 281 281
286 286 285 285 285 286 285 286 285 289 287 287 286 288 286 284 284 283 286 283 282 284 284 284 284 286 285 284 284 284 285 285 285 285 285 285 288 287 286 285 285 285 289 285 285 285 285 285 285 284 284 284 282 281 281 281 280 280 282 282 281 282 281 280 279 277 276 274 276 278 279 279 281 280 281 280 280 280 280 279 279 279 280 280 280
285 285 286 286 285 285 286 285 286 285 285 285 289 285 289 287 284 284 283 285 284 286 286 285 284 284 282 284 284 284 284 285 285 285 285 286 288 287 286 285 285 285 289 286 285 284 284 283 283 283 283 283 283 284 281 281 280 280 280 279 279 279 279 279 279 278 277 274 274 275 276 278 278 279 278 279 279 279 279 278 279 280 279 279 278
285 286 286 285 284 284 285 287 286 285 285 284 284 284 284 287 285 284 283 284 284 284 282 283 283 282 282 283 283 284 284 284 285 285 285 286 285 286 286 285 285 286 288 284 284 284 284 283 283 282 283 282 282 282 282 281 281 280 280 279 278 278 278 277 277 277 277 277 274 273 275 274 273 275 277 277 277 277 277 277 277 277 277 277 278
284 284 284 284 284 284 284 284 285 284 284 284 284 284 283 283 283 283 282 282 283 282 282 283 283 283 283 283 283 284 284 285 285 286 285 285 286 287 286 285 286 287 286 283 283 283 283 283 283 282 282 281 281 281 281 281 281 280 279 278 278 278 277 276 275 276 275 274 273 273 274 274 273 272 274 276 277 276 276 277 276 276 277 277 278
Wind_Speed
1 6 7 8 10 5 5 9 9 12 12 12 13 12 13 15 16 16 16 15 15 15 15 14 15 15 15 15 15 15 15 14 14 14 14 14 14 14 14 13 13 13 13 13 13 12 12 12 13 12 13 13 11 11 12 11 11 10 8 5 7 8 11 12 10 9 8 8 9 9 8 8 9 11 10 10 11 8 7 4 1 1 1 3 7
10 10 6 5 9 7 8 6 9 11 13 12 13 13 14 16 16 15 15 15 14 14 14 14 15 15 15 14 14 14 14 15 14 13 13 13 13 12 13 14 16 16 15 15 15 15 15 15 15 15 14 13 13 13 14 14 10 8 11 8 6 9 10 11 10 9 9 10 9 9 10 10 10 9 10 11 9 11 9 3 3 3 1 4 7
9 5 2 4 7 8 7 7 9 10 13 13 12 14 16 15 15 15 15 15 15 14 14 14 15 15 14 15 15 15 14 14 14 13 13 14 14 15 15 15 15 15 15 15 15 15 15 15 15 15 15 15 14 14 13 13 14 15 14 14 13 12 10 9 10 9 9 10 10 10 10 11 13 14 12 11 11 7 6 2 4 7 2 7 7
5 3 3 7 13 11 7 8 12 10 11 12 15 16 15 15 15 15 15 15 14 15 15 15 15 15 15 14 15 15 15 15 15 14 14 14 15 15 16 16 15 16 16 16 16 16 16 16 16 16 16 16 16 16 16 15 14 13 14 13 12 11 11 12 12 11 10 10 11 8 4 4 7 12 14 12 11 3 4 5 8 9 9 10 10
7 6 6 6 5 6 11 10 11 11 12 14 15 15 15 15 15 15 15 15 16 15 15 15 15 15 16 16 16 16 16 15 15 15 15 15 16 16 17 17 17 17 17 17 17 17 17 17 17 17 17 17 16 15 15 14 16 15 15 14 13 14 13 12 13 14 13 13 11 7 4 4 5 10 13 13 11 8 7 6 8 9 6 8 8
5 6 6 4 4 5 11 8 7 11 13 14 15 15 15 15 15 15 15 16 15 15 15 15 16 17 17 17 17 17 17 16 16 16 16 16 17 18 18 18 17 17 17 17 17 16 16 16 16 16 16 15 14 14 14 14 14 14 15 15 15 14 15 15 16 15 15 14 10 5 5 5 4 6 13 14 12 14 7 8 9 10 9 10 10
8 7 7 6 5 4 11 9 8 11 13 15 15 16 16 16 16 16 16 16 15 16 16 17 17 17 17 17 17 17 17 17 17 16 16 16 16 16 16 16 16 16 15 15 15 16 15 15 16 16 17 17 18 18 17 17 15 15 16 15 15 13 14 14 13 14 15 9 5 5 5 5 5 4 12 14 13 11 13 15 8 10 10 11 12
9 7 6 6 6 4 9 8 9 12 13 16 16 17 17 17 17 16 16 15 16 16 15 15 17 17 18 18 18 17 17 17 16 15 16 16 16 15 15 15 15 15 16 16 17 17 17 18 17 18 19 19 19 19 19 18 18 18 18 18 17 17 15 14 13 13 13 6 5 5 5 5 5 5 11 15 14 13 14 13 11 8 11 12 10
10 9 8 7 6 9 9 6 12 13 14 16 17 18 17 17 16 15 15 15 15 16 16 16 16 17 18 19 18 19 19 18 18 17 16 16 16 16 17 17 17 17 17 17 19 19 19 19 20 19 19 19 18 18 18 18 17 17 17 17 17 17 16 14 13 12 7 4 5 5 5 4 4 5 10 15 15 14 14 14 9 11 13 12 12
9 10 10 9 9 10 7 11 12 13 16 17 17 17 17 16 16 15 15 15 15 14 14 14 15 17 18 18 19 19 19 18 19 18 18 18 18 19 18 17 18 18 20 20 21 20 20 20 19 19 18 18 18 18 18 17 17 17 17 17 17 17 16 15 14 9 6 5 5 5 5 10 4 5 9 14 15 14 13 15 12 7 6 13 17
12 9 9 10 13 19 20 20 18 18 18 18 18 18 18 17 16 15 15 15 15 15 15 16 17 17 19 19 18 18 18 18 17 17 18 19 19 18 18 20 20 20 20 21 19 19 18 18 18 19 18 18 18 18 19 19 19 19 18 18 18 18 17 16 13 6 6 7 6 6 7 12 6 5 12 15 15 14 12 13 14 15 16 15 17
10 10 9 9 15 21 21 20 21 21 21 21 20 20 19 18 16 15 14 15 16 17 18 19 19 20 20 18 17 17 18 18 17 18 18 18 19 19 19 20 20 20 18 18 19 19 19 19 19 18 18 18 18 19 19 20 20 20 19 19 19 18 18 17 10 7 7 7 7 7 6 7 7 9 17 16 15 15 14 13 12 13 14 16 16
10 9 9 9 11 18 19 20 21 20 20 20 20 19 19 18 16 15 17 18 18 19 19 19 19 19 18 17 17 18 18 18 18 18 18 18 19 18 19 20 20 19 19 20 20 19 20 20 19 18 18 19 19 19 19 20 20 20 20 20 19 19 17 17 8 8 8 8 7 8 7 7 7 15 18 17 16 16 16 15 14 14 13 14 13
9 10 9 9 10 16 20 20 20 20 19 18 18 18 18 17 16 15 16 17 18 18 18 19 19 17 17 17 18 18 18 18 18 18 19 19 19 18 19 19 19 19 19 19 19 19 19 19 19 19 19 19 19 19 20 20 20 20 20 20 19 18 18 12 11 8 8 8 7 8 8 8 8 19 18 18 16 16 16 15 15 16 15 15 14
11 10 9 10 9 9 17 19 18 19 19 19 18 18 17 17 16 16 16 16 17 18 18 18 18 17 17 17 18 19 19 18 18 18 19 19 19 19 19 19 19 19 19 19 19 19 19 19 19 19 19 19 19 20 19 19 20 20 19 19 18 18 18 8 7 7 8 8 7 9 8 8 15 20 20 20 19 18 16 16 16 16 15 15 15
10 9 9 10 9 8 8 13 17 18 18 18 18 17 17 17 17 17 17 16 17 18 18 18 17 17 18 18 19 19 18 18 18 19 19 19 20 19 19 19 19 19 19 19 19 19 19 19 19 19 19 19 19 19 19 19 19 19 19 18 18 18 18 11 6 7 7 7 7 8 9 8 19 20 19 21 20 19 18 18 18 17 16 16 16
10 9 11 10 10 9 8 8 12 16 15 17 17 17 17 17 17 17 17 17 17 17 18 18 18 18 18 19 19 18 18 18 18 19 19 19 20 20 19 19 19 19 19 19 19 19 19 19 19 19 19 19 19 19 19 19 19 18 18 18 18 18 17 14 7 7 7 8 7 8 8 8 17 20 20 19 19 18 18 17 17 17 16 16 16
10 10 10 10 9 8 8 8 8 9 8 11 14 17 17 17 17 17 18 17 17 18 19 18 18 18 18 18 18 18 18 18 18 18 19 18 19 19 19 19 19 19 19 19 19 19 19 19 19 19 19 20 19 19 19 19 19 18 18 18 17 17 16 14 7 7 7 9 7 7 8 13 21 19 19 19 18 18 18 16 17 17 16 16 15
10 10 10 10 8 7 8 7 8 8 8 7 7 11 17 16 17 18 18 17 18 19 19 18 18 18 18 18 17 17 17 18 17 18 18 18 17 17 19 19 19 19 19 19 19 19 19 19 19 19 19 19 18 18 19 19 18 18 18 18 18 17 16 10 7 7 7 7 7 8 8 18 19 19 19 19 18 18 17 17 16 16 16 15 15
9 10 9 8 7 7 6 7 8 8 7 7 8 8 13 16 17 17 17 17 18 18 18 17 17 16 16 16 16 13 13 12 17 13 16 17 17 15 17 18 18 19 19 18 19 19 19 19 19 18 18 18 18 18 18 19 19 19 19 19 18 16 9 7 7 7 7 7 8 7 13 20 19 18 18 18 17 17 16 16 16 16 16 15 15
7 9 8 7 7 7 8 7 8 8 8 7 7 8 9 12 11 14 16 17 17 17 16 15 14 13 12 13 12 8 6 6 8 7 12 9 14 15 16 17 17 18 18 18 19 19 19 18 18 18 18 18 17 16 17 17 17 18 18 17 16 9 8 8 8 7 7 7 7 7 18 19 19 19 18 18 17 17 16 16 15 15 14 14 14
6 6 6 6 6 7 8 7 7 8 7 6 5 5 5 8 8 8 8 9 12 12 10 9 10 7 11 8 7 6 6 5 6 8 6 7 8 15 15 16 17 17 18 18 18 18 18 18 17 18 18 17 16 8 8 12 16 18 17 16 9 7 7 7 8 7 8 8 8 11 21 20 20 20 19 18 17 17 17 17 16 14 14 14 14
7 6 6 8 6 6 7 7 7 6 6 6 5 5 6 6 7 7 6 9 8 8 7 7 6 7 6 6 5 5 5 5 6 7 7 11 10 14 15 15 15 15 15 15 15 15 16 16 16 15 15 15 8 6 6 6 6 12 11 8 6 7 7 7 7 7 7 7 7 16 20 21 21 20 19 19 18 18 17 17 16 15 14 13 13
5 5 5 4 6 7 7 6 6 6 5 5 5 6 6 6 6 6 6 6 7 6 6 6 6 6 5 5 5 4 5 5 8 11 9 6 7 10 12 12 12 12 13 8 10 11 13 12 12 13 8 5 5 5 5 5 6 5 6 6 6 7 7 7 6 6 7 7 7 19 20 20 20 20 19 19 19 19 18 18 17 16 15 13 13
3 3 5 5 6 6 5 6 5 5 5 5 5 6 5 6 5 6 6 5 5 5 5 5 5 6 6 5 5 4 5 5 5 5 6 5 5 5 5 5 5 5 8 5 5 5 6 6 5 6 5 6 6 6 6 6 6 6 6 6 6 6 6 6 6 6 6 7 8 19 20 20 20 20 19 19 19 19 18 18 18 17 16 14 13
2 5 5 5 5 5 5 4 5 5 5 5 5 5 5 6 5 5 5 5 5 5 5 6 6 6 4 4 4 5 5 5 4 5 5 5 5 5 5 5 6 6 5 6 6 6 6 6 6 6 6 5 6 6 5 5 7 7 6 6 6 7 6 6 6 6 6 6 8 18 19 19 19 20 19 19 19 19 18 18 17 17 16 14 13
4 5 4 4 4 4 4 4 5 5 5 4 5 5 6 5 5 5 5 5 4 5 5 5 5 4 4 3 4 4 4 5 5 5 6 5 5 5 5 5 5 6 5 5 6 6 5 6 5 6 5 6 6 5 6 5 5 6 7 7 7 7 7 7 7 6 6 6 7 16 18 19 19 19 18 19 19 19 19 18 17 17 16 14 14
5 4 5 4 4 5 3 4 4 5 4 4 5 6 4 5 4 4 5 4 4 5 4 3 3 4 3 4 2 4 5 5 5 5 5 4 5 4 4 5 5 5 5 5 5 5 5 5 5 5 5 5 5 5 5 5 6 5 6 7 7 7 8 8 7 7 6 6 6 11 17 18 18 18 18 19 19 20 20 19 18 17 16 14 15
6 5 4 5 4 3 4 4 4 4 4 4 5 4 4 4 3 4 4 3 4 3 2 2 4 3 3 4 3 5 5 4 4 4 4 4 4 4 5 4 4 5 4 4 3 5 5 5 5 5 5 5 5 5 5 6 5 5 5 6 7 7 8 8 8 8 7 6 6 8 16 17 18 18 18 19 20 21 20 20 19 19 18 17 17
4 4 4 3 3 3 4 4 3 4 3 4 3 4 2 4 3 3 2 2 3 2 2 5 4 4 4 3 3 3 3 3 3 4 3 4 3 4 3 4 4 3 5 5 5 4 5 5 5 5 5 6 6 5 4 5 6 6 5 6 7 6 6 7 7 7 7 6 6 7 13 15 16 16 16 18 20 20 20 20 20 19 18 18 18
3 4 3 3 2 3 4 3 3 3 3 3 3 3 2 3 2 1 2 3 2 3 3 3 3 2 2 2 3 2 1 2 2 2 3 3 3 4 5 4 5 5 4 5 4 4 5 4 5 5 5 5 6 5 5 5 6 6 6 6 7 6 7 7 7 8 8 6 5 5 7 13 14 15 15 17 19 20 20 19 20 20 19 19 19
4 3 2 1 3 3 3 3 3 2 3 3 2 3 2 2 1 2 3 2 1 2 1 1 1 1 1 1 1 1 0 1 2 3 3 4 4 5 4 5 6 5 4 4 5 5 4 5 4 4 4 4 6 6 4 5 6 6 6 6 7 6 7 7 7 8 8 6 5 6 5 6 11 13 13 15 17 18 18 19 20 20 20 20 20
1 0 1 2 3 2 2 3 2 3 3 3 2 1 1 1 2 2 1 0 0 0 0 0 0 1 1 1 1 1 1 2 3 2 3 3 4 5 6 5 5 5 5 4 5 4 5 6 6 4 6 6 6 7 5 6 6 7 6 7 6 7 6 6 7 7 7 5 5 5 5 5 4 8 11 13 15 17 17 18 20 21 20 20 21
1 1 1 2 2 2 1 1 3 3 2 1 0 1 1 0 0 0 0 0 1 0 0 1 1 1 1 1 2 2 1 2 2 4 3 4 4 4 5 6 6 4 5 5 6 6 6 7 7 6 6 7 7 7 6 7 6 6 6 6 6 7 7 7 7 8 7 5 4 4 5 5 5 4 5 10 15 16 17 19 21 21 21 21 22
0 1 1 1 1 2 2 2 2 2 1 1 0 0 0 0 0 1 1 1 1 1 1 2 2 2 2 3 2 2 2 2 2 3 5 4 5 6 6 6 5 5 6 5 5 6 6 7 7 7 6 7 6 7 7 7 7 7 7 6 8 8 7 7 8 8 8 5 3 4 5 5 5 5 5 6 9 13 15 18 21 21 21 22 23
0 1 1 1 1 2 2 2 2 1 1 1 1 1 1 1 2 1 0 0 1 1 2 3 3 3 2 3 3 3 3 3 3 3 5 5 5 6 6 6 5 6 6 7 6 7 6 6 6 5 7 8 8 8 7 7 6 7 7 7 8 7 7 7 8 8 8 5 3 4 5 4 5 5 6 6 6 7 15 17 20 20 21 22 22
1 1 1 0 1 2 2 1 1 1 2 2 1 1 1 1 1 1 1 0 1 2 3 3 3 3 3 4 4 4 4 4 4 3 4 5 6 6 6 5 4 5 6 6 6 6 5 5 6 7 4 7 8 8 8 7 7 8 8 8 8 7 7 7 7 8 7 5 4 4 4 4 4 7 7 6 6 5 9 15 18 20 21 21 21
2 2 2 1 0 0 0 1 1 1 2 2 2 1 1 1 1 1 1 1 1 2 2 2 3 3 3 5 4 4 4 4 4 4 4 4 4 4 6 6 5 5 6 6 6 5 5 5 7 7 7 6 7 8 9 8 7 8 8 8 8 6 7 7 7 8 6 5 4 4 4 4 6 8 6 6 6 5 5 9 13 15 16 17 21
2 2 1 0 0 0 0 1 1 2 2 2 2 1 1 1 1 2 1 1 3 2 2 4 4 4 5 4 4 5 4 4 4 4 5 5 6 6 6 5 4 5 6 6 6 7 7 7 6 7 6 6 6 6 8 8 8 8 8 8 6 8 8 7 7 7 4 3 3 4 4 6 7 6 6 6 5 5 5 6 6 5 7 16 23
2 1 1 0 0 1 1 2 1 2 2 1 1 1 1 2 1 4 3 3 3 5 4 2 3 4 4 4 4 4 4 5 4 5 4 5 5 6 6 5 5 5 6 7 8 7 8 7 7 7 8 8 7 7 7 8 8 7 8 8 8 10 7 8 8 6 2 2 3 4 6 6 5 5 5 5 5 5 5 5 5 5 5 10 19
2 1 1 1 1 2 1 3 2 2 1 1 1 1 0 2 0 1 2 2 3 3 4 3 4 3 4 3 4 4 4 5 4 5 6 5 5 5 5 5 5 5 6 6 5 6 6 5 5 5 6 7 6 6 8 8 10 10 7 8 8 6 9 7 8 2 3 2 4 7 6 4 4 5 5 4 4 5 5 5 5 5 7 8 8
4 3 3 4 3 2 2 4 3 1 2 1 0 1 1 0 1 3 2 3 4 5 4 5 5 5 3 3 4 4 5 4 4 4 5 4 5 6 5 6 5 5 5 5 4 4 6 7 6 6 3 5 5 6 8 10 7 9 16 15 6 4 6 6 1 1 0 7 6 5 4 4 4 5 4 4 4 5 5 5 5 7 8 8 7
4 4 4 3 4 4 3 3 3 3 3 2 1 1 1 1 1 1 1 3 1 1 2 5 3 4 4 2 3 4 5 5 5 4 4 4 4 4 5 5 5 4 5 6 6 8 7 7 6 5 7 3 4 4 8 6 7 10 8 9 12 15 3 1 1 2 11 7 3 1 3 3 5 3 3 3 5 5 4 6 7 8 8 8 7
4 5 5 4 4 4 4 4 4 4 4 3 2 2 0 0 0 1 1 3 4 3 4 3 3 4 6 4 3 4 5 5 4 4 3 4 4 5 5 5 5 3 4 5 6 7 7 7 7 7 5 8 5 4 4 6 5 11 11 6 11 7 14 1 12 10 8 2 3 4 4 3 2 3 3 5 4 6 7 6 7 8 7 6 7
5 6 5 5 4 5 5 4 5 4 4 3 2 0 1 2 3 2 1 2 1 2 4 5 4 3 4 6 7 4 5 4 4 4 4 5 4 4 4 4 4 5 5 5 5 5 5 4 5 5 6 5 8 3 3 5 6 4 3 8 6 3 3 11 17 12 7 8 3 4 1 1 3 5 4 6 8 7 7 7 7 6 7 9 11
7 7 4 4 4 5 4 4 4 4 4 3 1 0 0 1 3 5 7 4 6 6 6 4 7 7 7 5 6 4 4 4 4 4 4 4 4 4 3 4 6 6 5 4 4 4 5 6 6 4 5 5 4 6 5 3 4 5 2 0 3 5 13 14 7 13 9 5 1 2 1 3 4 3 8 9 7 6 7 6 7 10 11 11 10
9 3 3 4 4 5 4 4 4 5 4 3 0 0 1 0 1 1 1 3 4 5 3 2 4 5 4 5 6 5 3 4 5 4 4 4 4 3 5 5 5 4 4 4 5 6 5 4 5 5 5 5 5 6 7 7 4 1 3 4 4 4 6 8 9 13 19 6 7 1 2 1 2 10 9 5 6 10 6 7 10 10 10 10 9
4 2 4 4 5 6 4 4 4 5 4 1 0 1 2 2 1 1 1 3 4 7 5 6 3 3 5 5 5 5 4 3 4 4 4 3 4 6 5 4 4 4 3 5 5 5 5 5 5 5 5 5 5 5 6 6 6 6 3 5 4 4 4 5 5 7 10 17 18 0 3 2 7 5 5 8 10 4 9 10 9 9 9 9 9
4 5 5 4 4 3 3 3 5 4 3 1 1 1 1 1 2 1 4 3 3 5 4 3 4 3 4 5 4 4 5 4 3 4 4 4 5 4 4 4 5 5 4 5 5 5 6 6 7 6 6 6 4 5 5 6 6 6 6 4 3 4 4 4 5 3 7 13 19 14 11 3 1 2 6 8 3 7 7 10 9 9 9 10 9
5 4 4 3 3 2 3 3 5 3 2 2 1 1 1 1 2 2 3 6 4 5 3 5 4 3 4 5 4 5 5 5 5 3 5 5 4 4 4 5 5 5 5 5 4 5 5 5 5 5 5 5 5 5 5 6 5 5 4 6 6 5 4 3 2 5 6 6 13 19 15 16 15 4 4 3 6 9 11 6 6 9 9 8 8
3 3 3 3 3 3 3 4 5 3 2 1 1 2 1 2 3 3 4 5 5 4 5 6 5 4 5 5 4 5 3 4 4 5 4 4 4 4 5 5 4 4 5 5 5 5 5 5 5 5 5 6 6 5 4 4 5 5 5 5 5 5 5 6 7 6 6 7 11 14 11 9 9 15 4 4 8 8 8 7 9 8 8 8 6
Wind_Direction
343 337 325 332 324 344 72 66 93 106 93 93 91 84 85 81 76 73 71 67 67 65 64 63 61 58 57 55 54 55 54 52 50 48 46 47 45 44 41 40 40 41 41 37 37 38 37 32 29 28 29 27 25 25 22 25 20 10 21 8 11 12 10 14 14 17 12 11 1 9 4 356 354 348 337 331 329 310 165 205 240 253 298 302 325
293 305 316 324 326 24 62 83 92 95 94 86 91 90 84 81 79 76 71 68 65 62 59 56 55 55 53 51 51 49 48 46 46 47 47 47 46 44 41 39 36 33 33 33 28 27 26 24 22 23 21 21 19 19 15 13 20 350 1 11 8 7 2 4 9 9 4 359 356 2 358 351 344 339 329 322 331 336 162 175 255 241 223 288 325
271 283 294 331 1 47 73 85 88 86 94 98 90 91 82 78 78 75 72 67 61 57 53 53 51 47 48 47 45 45 43 41 41 38 35 35 32 34 36 35 35 35 34 32 32 29 27 26 25 26 25 26 22 18 16 7 2 355 356 4 12 6 352 347 352 359 358 355 355 6 359 351 342 334 330 326 330 5 157 219 259 274 213 302 317
358 314 8 42 64 67 33 65 83 77 82 91 87 80 81 78 75 72 69 65 60 56 52 49 48 47 46 45 46 45 45 43 40 39 37 38 41 44 46 44 43 42 41 38 37 36 34 31 28 28 28 27 26 22 18 14 11 6 3 0 8 5 354 349 340 345 345 344 349 14 359 345 335 327 328 327 323 354 181 245 273 289 308 313 321
334 19 30 50 53 78 65 57 88 93 84 73 80 83 81 78 74 71 67 64 59 55 52 49 48 46 48 47 47 46 45 46 46 45 42 42 42 41 42 41 39 35 34 36 36 34 33 29 25 21 20 20 18 19 18 13 13 11 17 19 17 16 12 8 355 347 343 344 350 8 346 340 334 324 325 322 320 314 210 237 272 293 322 296 305
305 37 40 45 66 62 105 90 88 88 85 87 82 78 76 76 75 71 68 64 61 60 60 57 52 47 44 43 43 42 41 40 40 41 43 42 41 39 38 38 37 35 34 30 29 29 29 28 24 18 16 13 13 12 19 16 16 16 16 17 20 19 15 12 4 358 356 0 3 353 341 333 330 319 316 317 313 312 263 256 278 286 277 300 308
53 37 36 43 47 41 81 89 81 86 83 82 79 79 74 70 68 66 66 66 67 65 61 58 54 50 48 45 43 42 40 39 38 37 38 39 40 39 37 35 35 33 32 32 28 25 24 26 24 19 17 21 24 25 25 19 19 16 16 13 13 16 15 10 3 2 359 1 350 344 332 325 322 314 307 313 307 301 304 308 304 286 291 298 309
50 50 37 47 85 32 53 89 86 86 87 80 76 74 73 70 69 66 66 66 64 64 63 61 59 54 49 45 42 40 39 38 38 36 36 36 36 37 37 34 33 33 32 30 29 29 31 34 34 34 34 31 29 30 30 27 26 27 26 23 20 18 15 10 10 5 0 354 343 334 326 319 312 302 306 307 306 303 299 301 307 274 285 306 300
51 45 39 44 58 58 62 73 74 71 76 78 75 74 72 72 71 69 66 64 63 62 59 59 59 60 55 47 43 39 35 32 36 40 41 40 38 36 37 35 34 32 38 41 42 41 39 37 33 29 29 28 29 30 27 27 25 24 23 21 20 19 16 15 14 8 1 348 338 326 323 308 303 303 302 306 307 304 308 302 312 318 308 292 271
46 45 45 46 48 59 87 93 82 81 76 73 73 75 72 71 69 67 64 63 62 62 62 60 60 60 60 54 45 41 39 35 31 33 35 39 38 40 43 50 49 44 42 38 37 35 32 33 32 31 30 28 28 29 29 26 26 24 21 20 16 15 12 12 12 7 359 346 337 333 326 336 320 307 299 307 315 314 309 310 306 290 283 289 278
47 42 41 42 38 43 50 59 66 73 73 72 71 67 67 64 63 64 63 61 62 62 61 60 58 60 61 54 48 44 42 40 38 36 39 38 39 43 44 44 42 40 37 37 38 36 35 35 34 32 30 29 28 28 28 26 25 25 22 20 17 14 12 10 11 1 353 349 344 341 336 338 328 304 308 317 317 319 320 311 305 302 297 301 301
44 38 39 39 40 41 46 52 54 54 56 57 57 60 60 58 59 63 64 59 59 64 63 60 58 56 56 55 51 47 45 43 43 42 40 39 39 40 41 41 40 40 39 41 41 37 37 36 34 33 31 30 30 30 29 28 26 25 23 22 19 15 13 11 11 358 352 350 348 346 339 334 326 317 325 328 331 330 328 318 312 307 307 311 314
47 44 39 40 45 42 48 49 52 54 56 56 57 58 60 59 57 63 61 59 63 65 63 61 60 57 57 56 53 50 47 45 45 45 42 41 41 40 40 43 43 41 39 40 41 37 37 37 34 32 32 31 31 30 30 29 27 25 24 22 19 15 14 13 9 2 355 350 349 347 345 333 324 328 338 341 342 339 337 332 331 330 327 321 325
51 46 44 45 45 43 45 48 50 52 55 58 58 59 59 60 63 63 57 54 56 62 62 62 60 59 58 58 56 54 51 48 45 44 43 43 44 42 42 44 44 43 42 41 40 38 37 36 34 32 31 30 29 29 28 27 26 25 23 20 17 15 14 12 7 2 356 352 348 347 346 336 320 341 350 350 349 347 343 348 349 339 342 335 338
60 46 45 45 43 39 46 46 47 50 51 52 54 56 58 59 63 64 64 60 57 60 61 62 62 61 60 59 57 55 54 51 48 46 45 43 43 44 45 45 44 42 42 41 40 38 37 35 34 32 30 29 28 27 26 26 25 23 21 19 16 15 15 12 4 358 356 352 350 347 344 335 330 346 354 355 354 356 357 6 360 360 356 350 349
51 51 50 47 44 40 36 42 45 46 48 49 51 54 55 56 57 59 61 61 62 63 63 63 62 61 59 59 58 56 55 52 51 48 46 44 42 42 43 43 43 42 41 40 39 38 37 35 34 33 31 29 28 27 26 25 24 22 19 17 15 13 13 18 360 359 354 350 348 349 340 330 338 348 351 351 351 352 356 0 1 1 2 359 0
45 45 50 41 40 37 34 35 41 43 41 44 47 49 53 55 55 57 58 58 60 64 64 62 61 59 59 59 58 56 54 52 49 48 47 45 43 41 42 43 43 42 40 40 38 38 36 35 33 32 31 29 27 26 24 23 22 20 18 15 13 12 10 14 4 360 351 351 350 344 338 323 342 347 347 347 347 348 351 356 358 359 359 359 0
45 42 42 42 39 37 37 37 37 38 38 37 37 46 49 53 55 56 57 58 58 60 61 61 60 59 58 56 55 54 52 49 48 46 45 44 43 41 41 42 42 41 40 38 37 37 36 34 32 30 29 26 24 23 22 21 20 19 17 14 12 9 8 10 4 355 351 351 343 343 336 327 342 344 344 344 344 345 345 345 350 355 357 357 359
46 44 43 40 32 32 34 37 38 40 40 39 37 36 45 49 52 54 55 56 57 58 58 58 57 56 55 55 53 51 49 48 45 44 43 42 42 38 38 38 40 39 38 37 35 34 34 32 30 29 28 25 22 20 18 18 16 16 14 12 9 7 5 6 1 350 351 349 343 342 323 333 341 340 340 340 339 339 341 344 344 350 352 355 357
43 37 38 32 28 35 31 39 41 40 41 41 38 38 39 45 51 53 55 55 56 56 56 55 55 54 53 53 53 47 43 42 45 39 40 40 38 38 37 37 37 36 35 34 33 31 30 30 28 27 26 24 20 17 15 14 13 12 10 8 7 4 4 358 352 350 346 345 344 338 324 338 338 337 337 335 333 332 335 338 342 346 348 349 351
37 38 33 25 31 35 33 37 37 38 39 41 41 37 43 46 43 49 51 52 53 55 54 52 50 48 50 48 48 45 40 39 37 37 38 33 37 36 37 36 36 34 32 31 31 29 28 27 27 24 23 22 19 15 13 11 9 10 8 6 4 3 357 352 350 345 347 342 338 329 332 337 338 336 335 333 330 329 328 331 332 336 340 340 342
35 33 29 28 35 35 35 36 35 34 41 43 44 44 38 45 45 44 47 45 50 48 48 46 46 44 45 46 43 44 38 38 39 42 36 32 29 35 34 33 32 31 29 28 26 26 24 23 23 21 19 17 14 9 3 2 3 5 4 3 3 357 351 348 345 344 342 339 341 329 337 338 338 337 335 331 330 328 326 324 323 325 329 333 334
41 30 29 25 28 43 39 39 35 32 44 49 47 47 45 46 44 44 44 47 46 47 45 44 43 44 45 44 46 45 40 36 38 43 41 32 29 30 29 28 27 27 26 23 22 20 20 17 17 17 13 9 5 1 357 353 350 356 357 357 355 351 343 342 344 342 337 330 334 329 337 339 338 338 335 333 332 331 327 322 318 317 321 325 328
44 39 41 30 30 42 40 38 39 32 46 46 48 48 46 47 48 43 46 46 44 45 44 45 42 40 41 44 42 42 44 38 34 34 34 28 22 23 23 21 19 18 22 15 13 9 13 6 5 9 4 355 355 353 351 346 349 347 348 351 347 343 341 339 336 334 332 330 328 331 337 338 338 337 335 334 333 332 329 324 318 313 312 318 323
46 47 45 35 32 38 38 40 39 39 45 40 49 47 42 52 48 44 49 45 49 48 47 46 41 37 34 39 36 40 37 36 31 28 29 21 23 19 14 13 5 9 9 9 5 356 360 355 350 357 358 354 354 353 350 350 349 347 345 342 339 335 334 332 329 328 326 326 322 333 336 336 337 336 336 336 334 333 330 326 322 313 308 311 318
54 54 40 37 32 37 40 40 46 43 45 45 49 52 52 55 50 43 55 46 47 50 44 40 35 29 27 27 32 37 32 32 28 27 24 19 21 15 10 6 9 7 4 3 1 0 356 355 354 353 350 349 349 345 345 350 343 342 339 337 336 335 332 327 326 321 319 319 321 330 334 335 335 336 338 337 337 336 332 328 324 317 309 308 314
43 54 45 33 31 34 33 43 50 46 46 45 53 53 51 49 54 50 58 43 39 52 42 37 34 29 25 21 43 32 34 33 28 21 22 10 18 8 3 3 7 1 357 1 353 351 351 349 348 344 337 346 344 340 339 339 340 336 334 334 335 333 330 329 328 325 319 317 315 326 330 332 334 336 339 340 342 342 339 333 328 322 315 314 316
58 43 39 27 25 25 27 46 46 50 43 38 56 54 44 48 50 51 57 58 57 53 43 36 36 36 30 19 45 50 40 31 22 19 359 7 6 352 353 358 357 351 341 354 345 339 338 339 334 332 336 333 331 329 330 333 333 337 332 330 330 331 330 326 324 321 320 318 319 321 327 331 333 337 340 344 346 346 346 344 338 333 330 326 322
53 40 31 29 11 13 34 43 44 46 44 44 59 58 51 58 51 57 58 58 61 53 44 39 39 34 34 31 33 39 32 32 23 6 346 5 348 348 345 344 336 333 338 330 343 329 331 333 331 326 329 328 326 328 329 325 325 325 326 319 323 321 322 321 321 321 319 321 319 315 325 328 333 337 341 344 346 347 348 347 345 343 340 337 332
45 40 30 10 11 14 38 39 42 54 46 58 55 63 50 72 55 57 63 67 57 46 48 46 34 39 27 25 26 58 50 39 8 350 13 342 338 332 337 333 329 324 343 337 333 328 326 328 329 329 330 326 323 317 325 318 322 321 319 317 314 314 310 311 313 315 313 317 316 315 320 326 331 334 339 345 347 350 352 352 351 348 344 341 340
40 38 18 4 356 28 27 28 32 48 54 72 75 70 65 79 67 72 62 62 37 37 41 38 38 34 26 15 27 19 67 33 18 342 351 345 340 346 342 327 336 341 336 326 320 322 313 307 309 309 314 312 306 306 310 316 316 318 319 320 312 314 312 312 311 312 313 313 312 309 313 323 328 331 335 343 347 350 353 355 355 352 348 346 345
38 11 342 318 27 22 26 24 28 36 59 52 53 64 68 76 68 60 57 38 40 47 40 27 25 0 2 19 359 357 26 26 21 358 3 355 348 343 332 342 333 327 330 318 318 315 304 296 295 288 292 290 303 309 311 314 309 302 306 305 305 305 304 304 306 306 306 311 308 307 310 314 323 327 332 337 348 349 350 353 354 351 346 342 340
8 279 301 29 25 0 26 2 22 45 49 36 31 24 39 46 57 54 36 26 31 25 75 346 315 310 334 335 330 330 50 18 0 2 348 345 337 338 338 330 319 320 320 314 309 310 320 323 321 323 319 323 324 317 318 311 306 306 305 296 300 298 296 300 295 296 298 298 300 304 308 312 311 322 325 331 350 349 347 350 351 347 345 343 342
338 334 24 28 347 356 4 3 31 24 27 354 44 30 12 356 43 324 284 269 256 251 281 293 298 308 305 323 338 330 2 332 356 344 346 344 339 334 324 323 323 319 314 318 325 329 329 331 326 336 328 326 318 311 319 316 308 302 299 296 298 301 307 306 304 304 299 296 291 302 308 308 314 311 311 327 352 348 346 348 347 346 345 345 343
15 17 46 297 343 359 1 28 10 358 359 350 350 335 3 345 291 267 274 267 272 272 291 304 318 315 327 331 329 326 332 331 324 343 333 343 337 332 330 319 321 323 325 324 327 327 338 330 324 329 318 315 312 312 315 305 306 307 304 306 304 306 304 296 300 300 301 307 311 305 309 315 304 317 294 343 348 342 343 346 344 344 344 344 343
244 252 280 346 27 13 33 33 6 347 325 307 307 290 281 282 266 231 256 296 302 300 304 308 309 315 330 332 335 332 345 335 337 347 340 337 335 327 318 321 330 332 331 329 338 336 332 323 319 323 330 324 324 318 315 311 306 303 301 301 296 298 295 292 293 293 290 311 318 314 317 310 322 279 349 348 344 333 339 342 341 342 344 342 341
255 276 255 315 37 7 12 16 332 308 314 320 340 336 336 289 283 285 261 294 314 316 312 314 316 333 345 345 345 339 339 341 341 345 341 332 333 331 322 330 334 339 330 329 327 325 327 327 323 328 330 316 317 310 314 313 312 305 304 296 292 286 278 285 284 284 292 307 323 315 314 326 292 349 341 337 333 328 329 337 340 342 341 341 341
270 256 260 227 219 290 304 289 281 294 287 301 307 306 308 295 315 327 301 324 319 301 296 328 1 355 350 352 341 339 339 339 342 344 341 326 329 328 322 335 341 336 330 327 323 320 328 344 333 326 325 316 314 315 316 316 310 306 299 295 291 280 278 279 275 282 291 311 324 314 313 299 338 339 328 323 325 318 325 332 337 339 340 342 341
286 279 305 269 187 274 309 292 308 328 327 324 316 334 329 324 332 354 336 337 343 321 2 1 9 354 1 341 342 343 338 343 346 350 351 341 339 337 336 334 339 336 336 333 337 341 341 338 329 317 315 304 298 306 307 309 309 302 297 293 283 283 281 268 273 276 288 302 308 314 332 330 336 317 317 317 311 322 324 326 328 338 336 340 338
282 298 295 2 205 282 284 294 293 325 317 319 347 4 31 31 357 340 1 346 343 346 348 9 349 359 343 340 336 337 344 346 347 346 351 346 345 341 333 336 346 346 346 348 343 341 331 330 330 330 329 330 325 316 316 321 309 299 304 302 287 286 275 268 272 272 312 327 309 317 312 313 309 306 304 304 320 319 322 320 334 337 332 330 327
285 290 301 275 241 229 285 273 275 359 356 21 10 54 16 339 9 23 288 281 315 323 318 337 355 335 329 331 337 349 351 350 352 353 351 347 345 333 340 338 346 351 348 339 322 318 321 323 322 328 332 331 322 327 327 332 327 323 307 285 289 256 258 266 261 339 333 299 300 297 297 303 296 299 292 316 317 313 315 332 335 328 325 316 302
265 253 250 245 248 272 233 258 295 305 273 198 189 170 202 178 201 263 282 285 330 345 327 339 333 320 319 331 346 355 350 351 348 349 345 356 345 341 344 342 346 346 335 321 321 324 338 348 349 336 338 327 323 329 333 347 353 345 330 327 301 262 260 256 276 238 279 305 277 287 300 291 288 292 310 331 310 317 334 331 322 321 312 302 299
265 257 251 272 267 264 251 257 268 264 256 226 174 249 217 224 142 258 7 308 254 230 255 269 300 306 306 333 356 359 351 347 350 347 346 342 343 347 345 338 342 343 343 339 345 348 348 340 342 334 331 330 318 327 347 15 326 328 299 298 328 336 351 0 129 10 311 279 309 312 266 270 289 297 317 318 327 339 337 330 322 314 308 303 311
265 268 259 245 255 257 255 255 258 253 259 252 229 239 219 139 228 246 248 194 265 317 299 278 318 339 343 355 15 0 347 340 342 340 341 347 1 352 337 346 335 339 347 350 346 339 337 337 345 348 348 342 350 309 340 348 352 339 346 356 306 324 326 132 324 307 239 294 21 288 274 291 296 328 339 347 347 341 326 319 312 306 307 318 321
246 243 242 237 231 242 240 237 246 249 249 262 258 312 1 357 347 340 23 349 1 345 347 338 344 341 332 351 342 343 338 337 338 348 357 353 347 349 347 329 336 346 358 351 338 323 318 324 340 348 352 338 335 328 315 348 347 335 312 336 328 315 312 317 330 324 111 348 262 256 292 273 7 344 356 356 343 324 319 321 316 322 326 324 318
246 240 228 239 241 254 251 254 260 263 258 258 259 135 55 12 356 3 346 360 329 333 333 314 324 334 329 312 319 339 338 336 346 352 357 350 344 341 339 352 356 349 341 335 321 329 346 350 346 340 338 345 330 329 329 343 339 314 340 198 214 279 321 322 346 311 311 180 237 142 286 22 350 17 356 337 323 325 334 326 327 325 320 311 306
245 250 238 238 239 250 251 249 252 266 260 266 228 190 321 322 282 271 231 264 277 282 236 253 280 302 313 314 311 321 349 344 342 356 352 345 339 347 3 360 346 337 323 348 351 352 338 335 334 352 342 333 351 339 336 328 332 312 3 308 290 284 296 321 323 320 318 323 138 66 356 243 22 357 334 320 352 335 324 328 320 314 309 307 308
270 266 245 243 237 241 238 249 257 261 262 266 218 176 246 256 275 279 238 239 233 265 294 299 292 291 315 313 316 317 336 356 349 348 351 342 357 3 359 350 341 330 340 3 349 335 337 338 348 343 339 349 342 336 328 334 343 317 335 317 303 293 291 287 273 290 300 311 308 223 169 65 7 341 317 359 332 324 327 317 313 309 308 309 307
260 250 245 249 254 257 259 267 269 264 286 320 290 304 293 274 243 260 296 262 245 265 285 291 302 311 314 315 323 324 340 350 1 346 341 7 11 351 347 348 355 349 357 351 346 344 347 344 344 345 342 335 336 328 332 326 335 321 330 314 313 294 299 281 284 288 306 310 298 310 316 315 91 340 6 323 315 326 311 308 307 308 307 306 304
250 253 267 279 281 278 264 274 273 279 333 351 355 347 319 289 281 270 265 290 291 297 320 304 305 324 321 314 325 342 349 347 343 353 6 7 352 351 3 2 355 346 352 343 340 345 344 343 334 330 330 338 331 332 327 317 317 312 318 310 327 319 309 306 299 318 293 261 290 308 321 327 326 342 332 315 331 321 308 300 300 300 298 296 301
298 299 284 273 265 274 302 303 281 345 7 339 330 280 232 208 227 239 246 267 288 311 324 315 323 342 336 325 342 335 336 338 345 356 3 354 358 10 5 353 345 347 343 348 345 339 333 332 329 335 341 335 326 322 319 316 315 318 320 324 319 321 318 320 319 317 312 308 307 298 306 312 313 319 2 347 319 298 292 306 298 294 298 298 298